DateTimeUTC,F1_A11,F1_S11,BsB_S11,BsG_S11,BsR_S11,BbsB_S11,BbsG_S11,BbsR_S11,BaB_A11,BaG_A11,BaR_A11,Tu_S11,T_S11,Uu_S11,U_S11,P_S11,T1_A11
2021-03-18T18:04:00Z,00040200,00000000,0000.94,-000.35,0000.24,-001.40,-000.15,-000.32,-002.01,-001.82,0000.58,20.6,26.3,03.0,02.1,0648.9,31.1
2021-03-18T18:05:00Z,00040200,00000000,-000.40,-000.02,-000.21,0000.08,-000.04,0000.08,-000.66,-000.39,-000.62,20.4,26.2,02.8,02.0,0648.6,31.0
2021-03-18T18:06:00Z,00040200,00000000,0000.36,0000.14,0000.06,0000.04,-000.00,-000.21,-000.04,-000.38,-000.40,20.3,26.1,02.6,01.9,0648.7,31.0
2021-03-18T18:07:00Z,00040200,00000000,-000.01,0000.02,-000.01,-000.22,0000.02,0000.02,0000.13,-000.02,0000.12,20.2,26.0,02.7,01.9,0648.7,31.0
2021-03-18T18:08:00Z,00040200,00000000,0000.44,0000.14,-000.14,0000.65,-000.01,0000.35,0000.60,0000.86,0000.76,20.1,26.0,02.6,01.9,0648.6,31.0
2021-03-18T18:09:00Z,00040200,00000000,0000.10,0000.12,0000.27,0000.51,0000.04,0000.25,-002.26,-002.97,-002.64,20.0,26.0,02.7,01.9,0648.7,31.0
2021-03-18T18:10:00Z,00040200,00000000,0000.04,0000.03,0000.05,0000.02,-000.07,0000.06,0000.24,0000.57,0000.70,19.9,25.9,02.7,01.9,0648.8,31.0
2021-03-18T18:11:00Z,00040200,00000000,0000.35,-000.17,0000.08,0000.40,0000.14,-000.09,0000.07,0000.25,-000.06,19.8,25.9,02.7,01.9,0648.7,31.0
2021-03-18T18:12:00Z,00040200,00000000,0000.05,0000.40,0000.13,0000.04,0000.01,-000.04,0000.31,0000.28,0000.29,19.8,25.9,02.7,01.9,0648.7,31.0
2021-03-18T18:13:00Z,00040200,00000000,0000.14,0000.04,0000.07,-000.33,0000.05,-000.13,0000.04,-000.14,-000.00,19.7,25.8,02.7,01.9,0648.8,31.0
2021-03-18T18:14:00Z,00040200,00000000,-000.17,0000.15,0000.03,-000.03,0000.22,0000.10,-000.49,-000.01,-000.04,19.6,25.8,02.7,01.9,0648.7,31.0
2021-03-18T18:15:00Z,00040200,00000000,0000.35,-000.00,-000.00,-000.16,0000.21,0000.05,0000.75,0000.33,0000.38,19.6,25.8,02.6,01.8,0648.8,31.0
2021-03-18T18:16:00Z,00040200,00000000,-000.31,0000.12,-000.07,0000.35,0000.21,-000.19,0000.08,0000.15,0000.15,19.6,25.8,02.7,01.9,0648.8,31.0
2021-03-18T18:17:00Z,00040200,00000000,0000.47,0000.18,0000.19,-000.03,-000.01,0000.11,-000.10,-000.00,-000.08,19.5,25.7,02.7,01.9,0648.8,31.0
2021-03-18T18:18:00Z,00040200,00000000,0000.15,0000.19,-000.14,0000.72,0000.06,0000.50,0000.50,0000.48,0000.74,19.5,25.7,02.8,01.9,0648.8,31.0
2021-03-18T18:19:00Z,00040200,00000000,0000.16,-000.07,-000.10,-000.22,0000.18,0000.05,-000.75,-000.56,-000.65,19.4,25.7,02.8,01.9,0648.8,31.0
2021-03-18T18:20:00Z,00040200,00000000,0000.46,0000.27,0000.01,0000.57,0000.13,0000.06,-000.25,-000.15,-000.11,19.4,25.7,02.8,01.9,0648.9,31.0
2021-03-18T18:21:00Z,00040200,00000000,0000.20,0000.15,-000.07,0000.27,-000.08,0000.10,-000.11,-000.24,-000.11,19.4,25.7,02.7,01.9,0648.9,31.0
2021-03-18T18:22:00Z,00040200,00000000,-000.46,-000.21,-000.05,0000.10,0000.06,-000.16,0000.84,0000.62,0000.16,19.3,25.7,02.8,01.9,0648.9,31.0
2021-03-18T18:23:00Z,00040200,00000000,0000.67,-000.03,0000.03,0000.48,0000.19,0000.08,0000.22,0000.26,0000.20,19.3,25.6,02.7,01.9,0648.9,31.0
2021-03-18T18:24:00Z,00040200,00000000,0000.10,0000.14,0000.07,0000.11,0000.00,0000.02,0000.35,0000.31,0000.53,19.3,25.6,03.0,02.0,0648.9,31.0
2021-03-18T18:25:00Z,00040200,00000000,0000.15,0000.13,0000.03,-000.01,0000.23,0000.18,0000.17,0000.24,0000.19,19.3,25.6,02.8,01.9,0648.9,31.0
2021-03-18T18:26:00Z,00040200,00000000,0000.53,0000.12,-000.06,0000.08,-000.13,-000.08,-000.79,-000.82,-000.92,19.2,25.6,03.1,02.1,0648.9,31.0
2021-03-18T18:27:00Z,00040200,00000000,0000.19,-000.08,0000.37,0000.45,-000.13,-000.09,0000.25,0000.01,0000.23,19.2,25.6,02.8,01.9,0648.9,31.0
2021-03-18T18:28:00Z,00040200,00000000,0000.24,0000.30,-000.46,0000.33,0000.14,0000.10,0002.26,0002.76,0001.59,19.2,25.6,03.1,02.1,0649.0,31.0
2021-03-18T18:29:00Z,00040200,00000000,0000.41,0000.18,0000.08,0000.18,0000.10,0000.09,0000.33,0000.15,0000.46,19.2,25.5,03.5,02.4,0649.0,31.0
2021-03-18T18:30:00Z,00040200,00000000,0000.10,-000.00,-000.04,-000.34,-000.03,0000.23,-000.12,-000.22,-000.16,19.1,25.6,03.8,02.6,0649.0,31.0
2021-03-18T18:31:00Z,00040200,00000000,0000.66,-000.08,0000.09,0000.12,0000.24,-000.03,0000.24,0000.19,0000.07,19.1,25.5,03.8,02.5,0649.0,31.0
2021-03-18T18:32:00Z,00040200,00000000,0000.13,-000.18,0000.11,0000.05,0000.12,-000.12,-000.63,-000.58,-000.50,19.1,25.5,03.5,02.4,0649.2,31.0
2021-03-18T18:33:00Z,00040200,00000000,-000.07,-000.06,0000.02,0000.37,0000.09,-000.04,-001.07,-000.90,-000.65,19.1,25.5,03.3,02.2,0649.0,31.0
2021-03-18T18:34:00Z,00040200,00000000,0000.57,0000.14,0000.02,0000.36,0000.25,-000.06,-000.81,-001.29,-000.90,19.0,25.5,02.9,02.0,0649.0,31.0
2021-03-18T18:35:00Z,00040200,00000000,0000.04,0000.30,-000.15,0000.17,0000.02,-000.03,-000.67,-000.30,-000.32,19.0,25.5,02.7,01.8,0649.0,31.0
2021-03-18T18:36:00Z,00040200,00000000,0000.49,0000.02,0000.07,0000.03,0000.16,0000.15,-000.42,-000.70,-000.03,19.0,25.5,02.6,01.8,0649.1,31.0
2021-03-18T18:37:00Z,00040200,00000000,-000.26,0000.34,0000.01,-000.01,0000.09,-000.08,0000.15,0000.62,-000.17,19.0,25.5,02.6,01.8,0648.9,31.0
2021-03-18T18:38:00Z,00040200,00000000,0000.01,0000.58,-000.14,-000.19,0000.00,-000.00,-000.30,-000.56,-000.03,19.0,25.4,02.5,01.7,0649.0,31.0
2021-03-18T18:39:00Z,00040200,00000000,0000.28,0000.11,0000.20,0000.19,-000.11,0000.17,0000.09,-000.25,-000.40,19.0,25.5,02.5,01.7,0649.0,31.0
2021-03-18T18:40:00Z,00040200,00000000,0000.07,0000.13,0000.01,-000.28,0000.10,-000.20,-000.28,-000.38,0000.26,19.0,25.5,02.5,01.7,0649.0,31.0
2021-03-18T18:41:00Z,00040200,00000000,0000.21,0000.20,-000.14,-000.10,-000.09,0000.05,0000.01,0000.29,-000.34,19.0,25.5,02.4,01.6,0648.9,31.0
2021-03-18T18:42:00Z,00040200,00000000,-000.09,0000.04,0000.10,-000.05,-000.02,0000.22,0000.22,0000.32,0000.11,18.9,25.5,02.4,01.6,0649.0,31.0
2021-03-18T18:43:00Z,00040200,00000000,-000.37,0000.05,-000.14,0000.12,-000.02,0000.09,-000.41,-000.47,0000.06,18.9,25.4,02.3,01.6,0649.0,31.0
2021-03-18T18:44:00Z,00040200,00000000,0000.00,-000.12,0000.08,0000.14,-000.16,0000.02,-000.30,0000.07,-000.16,18.9,25.4,02.5,01.7,0649.0,31.1
2021-03-18T18:45:00Z,00040200,00000000,-000.15,0000.04,-000.19,0000.21,-000.05,0000.05,0000.08,0000.20,-000.08,18.9,25.4,02.4,01.6,0649.0,31.1
2021-03-18T18:46:00Z,00040200,00000000,-000.09,0000.23,-000.16,-000.05,0000.06,0000.03,-000.01,-000.23,-000.01,18.9,25.4,02.4,01.6,0649.1,31.0
2021-03-18T18:47:00Z,00040200,00000000,0000.64,0000.12,-000.00,0000.15,0000.04,0000.21,0000.09,-000.29,-000.07,18.9,25.4,02.3,01.6,0649.1,31.0
2021-03-18T18:48:00Z,00040200,00000000,-000.06,0000.22,0000.04,-000.06,0000.21,-000.20,0000.51,0000.93,0000.56,18.9,25.4,02.5,01.7,0649.0,31.0
2021-03-18T18:49:00Z,00040200,00000000,0000.19,0000.02,-000.01,0000.24,0000.21,0000.09,-000.65,-000.58,-000.76,18.9,25.4,02.4,01.6,0649.0,31.0
2021-03-18T18:50:00Z,00040200,00000000,0000.11,0000.16,0000.20,-000.03,0000.07,-000.04,-000.56,-000.67,-000.25,18.9,25.4,02.3,01.5,0649.1,31.0
2021-03-18T18:51:00Z,00040200,00000000,-000.10,0000.19,-000.19,0000.08,0000.07,0000.02,0000.10,0000.18,0000.18,18.9,25.4,02.2,01.5,0649.0,31.0
2021-03-18T18:52:00Z,00040200,00000000,0000.06,0000.20,-000.05,-000.26,0000.00,0000.03,0000.08,0000.24,0000.28,18.9,25.4,02.3,01.6,0649.0,31.0
2021-03-18T18:53:00Z,00040200,00000000,0000.26,-000.14,0000.03,-000.12,0000.06,0000.17,0000.08,-000.09,-000.17,18.8,25.4,02.4,01.6,0649.0,31.0
2021-03-18T18:54:00Z,00040200,00000000,0000.80,0000.13,0000.19,0000.30,-000.16,0000.14,0000.67,0000.30,0000.38,18.8,25.4,02.4,01.6,0649.0,31.0
2021-03-18T18:55:00Z,00040200,00000000,-000.13,-000.15,-000.07,-000.05,-000.00,-000.06,-000.72,-000.70,-000.16,18.8,25.4,02.5,01.6,0649.0,31.0
2021-03-18T18:56:00Z,00040200,00000000,0000.33,-000.09,-000.28,0000.03,0000.34,0000.02,0000.47,0000.83,0000.33,18.8,25.4,02.4,01.6,0649.0,31.0
2021-03-18T18:57:00Z,00040200,40000000,,,,,,,0001.28,0000.85,0000.52,18.8,25.4,02.2,01.5,0649.1,31.0
2021-03-18T18:58:00Z,00040200,60000000,,,,,,,-000.70,-000.70,-000.34,18.6,25.5,02.6,01.7,0648.1,31.0
2021-03-18T18:59:00Z,00040200,20000000,,,,,,,-000.27,-000.32,-000.27,18.6,25.6,02.5,01.6,0648.0,31.0
